Regional Weather Roundup
Issued by NWS

Home | Current Version | Previous Version | Graphics & Text | Print | Product List | Glossary On
Versions: 1 2 3 4 5 6 7 8 9 10 11 12 13 14 15 16 17 18 19 20 21 22 23 24 25 26 27 28 29 30 31 32 33 34 35 36 37 38 39 40 41 42 43 44 45 46 47 48 49 50
000
ASUS45 KTFX 290219
RWRMT
MONTANA HOURLY WEATHER ROUNDUP
NATIONAL WEATHER SERVICE GREAT FALLS MT
719 PM MST SUN DEC 28 2014

NOTE: "FAIR" INDICATES FEW OR NO CLOUDS BELOW 12000 FEET WITH NO
SIGNIFICANT WEATHER AND/OR OBSTRUCTIONS TO VISIBILITY.

* THESE STATIONS ARE NOT UNDER NWS QUALITY CONTROL. THEY DO NOT
   REPORT WEATHER SUCH AS PRECIPITATION OR FOG.

MTZ001>007-043-290300-
WEST OF THE DIVIDE
CITY           SKY/WX    TMP DP  RH WIND       PRES   REMARKS
KALISPELL      CLOUDY    19  12  74 NE26G35   30.18R WCI   1
MISSOULA       CLOUDY    23  14  68 E17       30.14R WCI   9
BUTTE          LGT SNOW  10   5  80 N8        30.04R VSB 2    WCI  -2
MULLAN PASS    LGT SNOW  21  18  88 CALM      29.92R VSB 2
* ESSEX        N/A       13   3  64 SE8        N/A   WCI   2
* HAMILTON APT CLOUDY    23  19  85 N16       30.06R WCI  10
* LINCOLN      N/A       10   1  67 E11G21     N/A   WCI  -4
* LOOKOUT PASS N/A       23  22  96 NW2        N/A
* POLSON       N/A       21  18  88 N2         N/A
* RONAN APT    MOCLDY    25  21  85 E5         N/A   WCI  19
* SEELEY LAKE  N/A       13   7  77 NW1G8      N/A
* THOMP F APT  MOCLDY    12   9  88 N2         N/A
* YAAK HILL    N/A       28  18  66 NE2        N/A
$$

MTZ008-052>055-290300-
SOUTHWEST MONTANA
CITY           SKY/WX    TMP DP  RH WIND       PRES   REMARKS
BOZEMAN        LGT SNOW  16  10  77 S10       30.10R VSB 2    WCI   4
DILLON         LGT SNOW  16  10  77 NE17G28   30.00R VSB 3
* W YELLOWSTON PTCLDY    13  10  88 SW2G11     N/A
* THREE FORKS  CLOUDY    18  16  92 N10G21     N/A   WCI   6
* BOULDER HILL N/A        6   2  83 N18G25     N/A   WCI -13
* MONIDA PASS  N/A       10   9  96 SE8        N/A   WCI  -2
* RAYNOLDS PAS N/A       12 -32  11 N11        N/A   WCI  -2
* WHITEHALL    N/A       14   4  64 N14G25     N/A   WCI  -1
* WISE RIVER   N/A       16   9  74 SE10G23    N/A   WCI   4
$$

MTZ009>010-012-014-046-048-049-054-290300-
EAST SLOPES AND CENTRAL MONTANA
CITY           SKY/WX    TMP DP  RH WIND       PRES   REMARKS
CUT BANK       LGT SNOW   9   3  76 N18       30.32R VSB 1 1/2 WCI  -9
GREAT FALLS    LGT SNOW  10   7  88 N16       30.28R WCI  -7
HELENA         HAZE      14   7  73 NW10G17   30.24R WCI   1
MALMSTROM AFB  LGT SNOW  10   9  96 N13       30.32R WCI  -5
* CONRAD       PTCLDY    10   7  88 NW13       N/A   WCI  -5
* DEARBORN     N/A       13   7  77 VRB7       N/A   WCI   3
* EAST GLACIER N/A        5   0  80 NE15G20    N/A   WCI -13
* MONARCH      N/A        6   1  80 NW11       N/A   WCI  -9
* PENDROY      N/A        8   6  91 N20G27     N/A   WCI -12
* SWEET GRASS  N/A        4   1  87 N/A        N/A
* WHITE SULPH  N/A        8   3  80 NW12G18    N/A   WCI  -7
$$

MTZ011-013-016-021-035-040-045-047-050-051-290300-
NORTH CENTRAL MONTANA
CITY           SKY/WX    TMP DP  RH WIND       PRES   REMARKS
HAVRE          LGT SNOW  12   9  88 NE13      30.37R WCI  -3
LEWISTOWN      LGT SNOW  12   9  88 NW12      30.21R WCI  -2
* N BAR RANCH  HAZE      12   7  80 NW13      30.17R WCI  -3
* CHINOOK      MOCLDY    12   5  73 NE5       30.41R WCI   4
* CHESTER      N/A       11   3  70 NE14G21    N/A   WCI  -5
* DENTON       N/A       13  10  88 NW14       N/A   WCI  -2
* GEYSER       N/A       11   7  84 W17        N/A   WCI  -6
* JUDITH GAP   N/A       10   9  96 N24G29     N/A   WCI -10
* LOMA         N/A       12   8  84 N17G22     N/A   WCI  -5
$$

MTZ017>020-022>027-061-062-290300-
NORTHEAST MONTANA
CITY           SKY/WX    TMP DP  RH WIND       PRES   REMARKS
GLASGOW        CLOUDY     9   0  66 NE13      30.37R WCI  -7
GLENDIVE       CLOUDY    10   5  80 NE14      30.27R WCI  -6
JORDAN         MOCLDY    12   9  88 NE13      30.27R WCI  -3
SIDNEY         CLOUDY     9   1  70 N13       30.37R WCI  -7
WOLF POINT     CLOUDY     9   0  66 NE14      30.39R WCI  -7
* BEAVER HILL  N/A       10   7  88 N12G17     N/A   WCI  -5
* CIRCLE       N/A        9   5  84 NE6G12     N/A   WCI  -1
* LINDSAY DVD  N/A        9   6  87 N13        N/A   WCI  -7
* NAVAJO       N/A       -5 -10  79 VRB9       N/A   WCI -21
* PLENTYWOOD A PTCLDY    -8 -13  78 N10       30.39R WCI -26
* POPLAR APT   PTCLDY     5  -2  72 N/A       30.39R
* SACO         N/A        9   1  70 VRB11      N/A   WCI  -5
$$

MTZ028>042-056>058-290300-
SOUTHCENTRAL AND SOUTHEAST MONTANA
CITY           SKY/WX    TMP DP  RH WIND       PRES   REMARKS
BAKER          LGT SNOW  14   9  80 E14       30.18R VSB 2    WCI  -1
BILLINGS       LGT SNOW  16  12  84 N15       30.17R VSB 1 3/4 WCI   1
LIVINGSTON     LGT SNOW  16  10  77 N8        30.11R VSB 1 1/4 WCI   5
MILES CITY     LGT SNOW  16  12  84 NE20      30.18R VSB 2    WCI  -1
* BIG TIMBER A MOCLDY    14  10  84 NE10      30.15R VSB 3/4  WCI   1
* FORSYTH APT  CLOUDY    16  14  92 N10G16    30.21R VSB 1 1/2 WCI   4
* LAUREL APT   CLOUDY    18   5  57 N7         N/A   WCI   9
* ROUNDUP APT  CLOUDY    16   9  74 N10G17     N/A   WCI   4
* ALZADA       N/A       19  15  84 E7         N/A   WCI  10
* HYSHAM       N/A       14  11  88 NE8G15     N/A   WCI   3
* REED POINT   N/A       18  16  92 W3         N/A
* ROSCOE HILL  N/A       12   8  84 VRB7G12    N/A   WCI   1
$$

REGIONAL REPORTS...DAKOTAS
CITY           SKY/WX    TMP DP  RH WIND       PRES   REMARKS
WILLISTON      CLOUDY     5  -2  72 N13       30.38R WCI -12
DICKINSON      LGT SNOW   9   3  76 NE15      30.22R VSB 2    WCI  -8
BEACH          LGT SNOW  10   7  88 NE13      30.23R WCI  -5
CROSBY         CLEAR     -8 -11  86 NW13      30.43R WCI -28
WATFORD CITY   CLOUDY     5   0  80 NE7       30.33R WCI  -7
BISMARCK       CLOUDY     3  -2  79 NE12      30.36R WCI -14
GRAND FORKS    CLEAR     -9 -13  82 NW5       30.46R WCI -21
FARGO          PTCLDY    -2  -9  72 N10       30.43R WCI -18
BUFFALO SD     PTCLDY    18  14  84 NE13      30.05R WCI   5
RAPID CITY     LGT SNOW  18  14  84 NE6       30.08R VSB 1 1/4 WCI  10
$$

REGIONAL REPORTS...WYOMING/IDAHO/WASHINGTON
CITY           SKY/WX    TMP DP  RH WIND       PRES   REMARKS
GILLETTE       LGT SNOW  21  18  88 N6        29.98R VSB 2 1/2 WCI  13
SHERIDAN       LGT SNOW  21  18  88 NW20      30.05R VSB 1 1/2 WCI   6
CODY           CLOUDY    18  14  84 N8        30.03R VSB 3    WCI   8
YELLOWSTONE LA MOCLDY    10   7  88 CALM      29.89R
SALMON         MOCLDY    19  16  88 CALM      30.03S
MULLAN PASS    LGT SNOW  21  18  88 CALM      29.92S VSB 2
SAND POINT     LGT SNOW  30  28  92 N13       30.12R WCI  20
SPOKANE        LGT SNOW  28  27  96 SE6       30.08S WCI  21
$$

REGIONAL REPORTS...ALBERTA
CITY           SKY/WX    TMP DP  RH WIND       PRES   REMARKS
CALGARY        LGT SNOW  10   5  80 N15       30.43R VSB 3    WCI  -7
LETHBRIDGE     LGT SNOW   9   5  84 N6        30.43R WCI  -1
MEDICINE HAT   LGT SNOW   5   1  83 NE8       30.48R WCI  -8
EDMONTON       LGT SNOW   9   3  76 N12       30.59R WCI  -6
WATERTON GATE  N/A        9   3  76 N5         N/A
CARDSTON       N/A        9   7  91 N9         N/A   WCI  -4
MILK RIVER     N/A        5   3  91 N14        N/A   WCI -12
$$

REGIONAL REPORTS...SASKATCHEWAN
CITY           SKY/WX    TMP DP  RH WIND       PRES   REMARKS
SWIFT CURRENT  FAIR      -8 -11  86 N5        30.42R WCI -20
REGINA         N/A      -13 -18  78 N10       30.48R WCI -32
VAL MARIE      N/A        1  -4  79 NE13       N/A   WCI -17
ASSINIBOIA     N/A       -9 -15  74 N3         N/A

$$



USA.gov is the U.S. government's official web portal to all federal, state and local government web resources and services.